[[{"header":{"parameterUnit":"m.s-1","parameterCategory":1,"la1":30.2991,"la2":30.254,"lo1":-89.0895,"lo2":-89.0444,"dy":0.0017,"dx":0.0017,"nx":28,"ny":28,"refTime":"2025-05-19T09:00:00:Z","depth":0,"parameterNumber":2,"parameterNumberName":"U-component_of_WINDS"},"data":[0,0,0,0,0,0,0,0,0,0,0,0,0,0,0,0,0,0,0,0,0,0,0,0,0,0,0,0,0,0,0,0,0,0,0,0,0,0,0,0,0,0,0,0,0,0,0,0,0,0,0,0,0,0,0,0,0,0,-2.1278,-2.1278,0,-2.1263,-2.1263,-2.1263,-2.1213,-2.1212,-2.1211,-2.121,-2.1198,-2.1199,-2.12,0,0,0,0,0,0,0,0,0,0,0,0,0,-2.1268,-2.1269,-2.1278,-2.1278,-2.1278,-2.1263,-2.1263,-2.1263,-2.1213,-2.1212,-2.1211,-2.1209,-2.1198,-2.1199,-2.12,0,0,0,0,0,0,0,0,0,0,0,0,0,-2.1265,-2.1269,-2.1278,-2.1251,-2.1249,-2.1263,-2.1263,-2.1263,-2.1214,-2.1212,-2.121,-2.1209,-2.1198,-2.1199,-2.12,-2.1241,0,0,-2.1203,-2.1204,0,0,0,0,0,0,0,0,-2.1265,-2.1265,-2.1256,-2.1253,-2.125,-2.1238,-2.1255,-2.1255,-2.1214,-2.1227,-2.121,-2.1208,-2.1213,-2.1213,-2.1214,-2.124,-2.1239,-2.1204,-2.1204,-2.1205,-2.1205,0,0,0,0,0,0,0,-2.1265,-2.1266,-2.1272,-2.1256,-2.1252,-2.1241,-2.1239,-2.1255,-2.123,-2.1226,-2.1222,-2.1221,-2.1212,-2.1213,-2.1213,-2.1239,-2.1204,-2.1205,-2.1205,-2.1206,-2.1297,-2.1298,0,0,0,0,0,0,-2.1269,-2.1266,-2.1273,-2.1272,-2.1254,-2.1243,-2.124,-2.1244,-2.123,-2.1226,-2.1222,-2.1219,-2.1212,-2.1212,-2.1213,-2.1258,-2.1205,-2.1206,-2.1206,-2.1295,-2.1297,-2.1299,0,0,0,0,0,0,-2.1269,-2.127,-2.1273,-2.1268,-2.1268,-2.1245,-2.1249,-2.1244,-2.1246,-2.1227,-2.1222,-2.1228,-2.1211,-2.1211,-2.1233,-2.1257,-2.1206,-2.1207,-2.1293,-2.1295,-2.1298,-2.135,0,0,0,0,0,0,-2.1269,-2.127,-2.1285,-2.1269,-2.1268,-2.1294,-2.1251,-2.1245,-2.1247,-2.1242,-2.1231,-2.1228,-2.1209,-2.1232,-2.1235,-2.1258,-2.1208,-2.1291,-2.1294,-2.1297,-2.1346,-2.1354,-2.1361,0,0,0,0,0,-2.1269,-2.1301,-2.1286,-2.1287,-2.1285,-2.1295,-2.1295,-2.1272,-2.1249,-2.1264,-2.1252,-2.1228,-2.1254,-2.1235,-2.1237,-2.1261,-2.1289,-2.1293,-2.1297,-2.1343,-2.1353,-2.1361,0,0,0,0,0,0,-2.1323,-2.1299,-2.1281,-2.1309,-2.1304,-2.1287,-2.1305,-2.1283,-2.1286,-2.1281,-2.1254,-2.1252,-2.1278,-2.1272,-2.125,-2.1299,-2.1268,-2.1272,-2.1302,-2.1311,-2.1318,-2.1319,-2.1209,0,0,0,0,0,-2.1338,-2.1346,-2.1325,-2.1352,-2.1351,-2.1328,-2.1331,-2.1314,-2.1308,-2.1306,-2.1296,-2.1292,-2.1299,-2.1305,-2.1311,-2.1345,-2.1342,-2.1363,-2.137,-2.1376,-2.1381,-2.1398,-2.1407,-2.1312,-2.1312,-2.1312,0,0,-2.137,-2.1357,-2.1365,-2.1363,-2.1357,-2.1367,-2.1327,-2.134,-2.1347,-2.1309,-2.1328,-2.132,-2.1315,-2.1343,-2.1355,-2.1339,-2.1406,-2.1381,-2.1387,-2.1388,-2.1403,-2.1412,-2.142,-2.1314,-2.1314,-2.1314,0,0,-2.1432,-2.1424,-2.1445,-2.1439,-2.143,-2.1414,-2.1419,-2.1404,-2.1397,-2.1416,-2.1387,-2.1396,-2.1409,-2.1406,-2.1406,-2.1466,-2.1444,-2.1468,-2.1508,-2.1525,-2.1532,-2.1538,-2.1559,-2.1567,-2.1473,-2.1473,-2.1473,0,-2.1473,-2.1486,-2.1459,-2.1473,-2.1473,-2.1436,-2.1458,-2.1454,-2.1448,-2.1449,-2.1431,-2.1445,-2.1439,-2.1466,-2.148,-2.1481,-2.1487,-2.147,-2.1533,-2.1539,-2.1545,-2.1564,-2.1572,-2.1476,-2.1476,-2.1475,-2.1475,0,-2.1537,-2.1546,-2.1564,-2.1557,-2.1559,-2.1577,-2.1553,-2.1559,-2.1541,-2.1527,-2.1547,-2.1538,-2.154,-2.1545,-2.1529,-2.1569,-2.1559,-2.1537,-2.1505,-2.1557,-2.1575,-2.1583,-2.148,-2.1479,-2.1478,-2.1478,0,0,-2.1634,-2.161,-2.1617,-2.1613,-2.1599,-2.1606,-2.1623,-2.1623,-2.1628,-2.1625,-2.1638,-2.1649,-2.1628,-2.1629,-2.1611,-2.1626,-2.1673,-2.1602,-2.1601,-2.1615,-2.1717,-2.1733,-2.1742,-2.1658,-2.166,-2.1661,-2.1717,0,-2.1693,-2.1718,-2.1693,-2.1723,-2.1731,-2.1696,-2.171,-2.1704,-2.1691,-2.1698,-2.1685,-2.1693,-2.1664,-2.1664,-2.1677,-2.1665,-2.1693,-2.166,-2.1671,-2.1672,-2.1673,-2.1752,-2.1769,-2.1823,-2.1724,-2.1725,-2.1726,0,-2.1766,-2.1763,-2.1794,-2.1776,-2.1779,-2.1792,-2.179,-2.1796,-2.1788,-2.1778,-2.1777,-2.1755,-2.1771,-2.1739,-2.176,-2.1738,-2.1741,-2.1735,-2.1737,-2.1737,-2.1702,-2.1754,-2.184,-2.1848,-2.1737,-2.1736,-2.1735,0,-2.1833,-2.1838,-2.1856,-2.1854,-2.1834,-2.1844,-2.1837,-2.1827,-2.1828,-2.1827,-2.1828,-2.1829,-2.183,-2.1832,-2.1811,-2.179,-2.1835,-2.1801,-2.1827,-2.1828,-2.1839,-2.1838,-2.1926,-2.1841,-2.1841,-2.184,-2.184,0,-2.1902,-2.1922,-2.1886,-2.1898,-2.1919,-2.189,-2.1912,-2.1901,-2.1893,-2.1902,-2.1872,-2.1882,-2.1853,-2.186,-2.1844,-2.1864,-2.1864,-2.1857,-2.1853,-2.186,-2.1861,-2.1861,-2.1857,-2.1843,-2.1842,-2.1842,-2.1841,0,-2.1981,-2.1958,-2.1976,-2.1955,-2.195,-2.1967,-2.1949,-2.196,-2.1944,-2.1957,-2.1958,-2.1935,-2.1941,-2.192,-2.1924,-2.1913,-2.1941,-2.1931,-2.1943,-2.194,-2.1967,-2.1965,-2.2058,-2.2069,-2.1977,-2.1978,-2.1979,0,-2.2027,-2.2041,-2.2021,-2.2024,-2.2017,-2.2023,-2.2024,-2.1996,-2.1998,-2.1989,-2.2,-2.2004,-2.2005,-2.2017,-2.2001,-2.2004,-2.1993,-2.2025,-2.1993,-2.1999,-2.1993,-2.1992,-2.1993,-2.2032,-2.2033,-2.2034,-2.2035,0,-2.2109,-2.2097,-2.2098,-2.2095,-2.2096,-2.2093,-2.2088,-2.2093,-2.2063,-2.2067,-2.2072,-2.2073,-2.2075,-2.2079,-2.2077,-2.2071,-2.2048,-2.2045,-2.2051,-2.2059,-2.2065,-2.2061,-2.1961,-2.2043,-2.2042,-2.2042,-2.2041,-2.2041,-2.2173,-2.2183,-2.217,-2.2172,-2.2165,-2.2161,-2.2168,-2.2153,-2.2156,-2.2155,-2.2139,-2.2147,-2.2137,-2.2133,-2.2128,-2.2135,-2.212,-2.2129,-2.2131,-2.2134,-2.2138,-2.2064,-2.2135,-2.2134,-2.2134,-2.2134,-2.2134,0,-2.2254,-2.2243,-2.2245,-2.2238,-2.224,-2.2216,-2.2209,-2.2212,-2.2219,-2.2211,-2.2212,-2.2218,-2.2221,-2.2205,-2.2206,-2.2214,-2.2203,-2.2215,-2.2214,-2.2213,-2.2152,-2.2146,-2.2223,-2.2223,-2.2223,-2.2223,-2.2223,-2.2223,-2.2296,-2.2312,-2.2297,-2.2309,-2.2299,-2.2305,-2.2302,-2.2298,-2.2292,-2.2298,-2.23,-2.2289,-2.2278,-2.2277,-2.2279,-2.2274,-2.2276,-2.2291,-2.2283,-2.2226,-2.2217,-2.2209,-2.2204,-2.2292,-2.2292,-2.2344,-2.2344,-2.2345]},{"header":{"parameterUnit":"m.s-1","parameterCategory":1,"la1":30.2991,"la2":30.254,"lo1":-89.0895,"lo2":-89.0444,"dy":0.0017,"dx":0.0017,"nx":28,"ny":28,"refTime":"2025-05-19T09:00:00:Z","depth":0,"parameterNumber":3,"parameterNumberName":"V-component_of_WINDS"},"data":[0,0,0,0,0,0,0,0,0,0,0,0,0,0,0,0,0,0,0,0,0,0,0,0,0,0,0,0,0,0,0,0,0,0,0,0,0,0,0,0,0,0,0,0,0,0,0,0,0,0,0,0,0,0,0,0,0,0,5.2464,5.2465,0,5.2501,5.2502,5.2502,5.2461,5.2459,5.2458,5.2456,5.2492,5.2495,5.2497,0,0,0,0,0,0,0,0,0,0,0,0,0,5.2355,5.2357,5.2464,5.2465,5.2465,5.2501,5.2502,5.2502,5.2461,5.2459,5.2457,5.2455,5.2492,5.2495,5.2497,0,0,0,0,0,0,0,0,0,0,0,0,0,5.2398,5.2358,5.2464,5.2449,5.2448,5.2501,5.2502,5.2502,5.2461,5.2459,5.2457,5.2454,5.2491,5.2494,5.2498,5.2567,0,0,5.2509,5.2511,0,0,0,0,0,0,0,0,5.2396,5.2402,5.2451,5.245,5.2449,5.2474,5.2476,5.2524,5.2462,5.2456,5.2456,5.2453,5.2488,5.2492,5.2504,5.2569,5.2571,5.2509,5.2512,5.2513,5.2514,0,0,0,0,0,0,0,5.2393,5.24,5.2479,5.2452,5.2451,5.2439,5.2443,5.2485,5.2485,5.2457,5.2454,5.2459,5.2487,5.25,5.2504,5.2571,5.2509,5.2512,5.2515,5.2516,5.2694,5.2696,0,0,0,0,0,0,5.2392,5.2398,5.2478,5.248,5.2416,5.2443,5.2447,5.2468,5.2484,5.2484,5.2461,5.2457,5.2495,5.25,5.2506,5.2588,5.2513,5.2516,5.2519,5.2691,5.2694,5.2697,0,0,0,0,0,0,5.239,5.2399,5.2476,5.2438,5.2447,5.2448,5.2472,5.247,5.2484,5.2487,5.2487,5.2475,5.2494,5.25,5.2552,5.2588,5.2518,5.2521,5.2688,5.2692,5.2695,5.2753,0,0,0,0,0,0,5.2387,5.2399,5.2426,5.2439,5.2449,5.2523,5.2474,5.2473,5.249,5.2485,5.25,5.2501,5.2492,5.2547,5.2556,5.2592,5.2524,5.2685,5.269,5.2694,5.2748,5.2758,5.2767,0,0,0,0,0,5.2383,5.2441,5.2428,5.2438,5.2484,5.2526,5.2531,5.2521,5.2493,5.252,5.2522,5.25,5.2583,5.2553,5.2562,5.26,5.2683,5.2688,5.2694,5.2743,5.2756,5.2767,0,0,0,0,0,0,5.2432,5.2442,5.2428,5.2492,5.2508,5.2518,5.2552,5.2535,5.2559,5.2554,5.2539,5.2543,5.2598,5.2604,5.257,5.2667,5.2628,5.2636,5.2662,5.2674,5.2684,5.2682,5.2527,0,0,0,0,0,5.245,5.2484,5.2491,5.2546,5.2555,5.2552,5.257,5.2561,5.2577,5.2584,5.2589,5.2605,5.2634,5.2654,5.2682,5.2747,5.275,5.2778,5.2788,5.2796,5.2803,5.2837,5.285,5.2716,5.2715,5.2715,0,0,5.2489,5.2498,5.252,5.2556,5.2568,5.2602,5.2559,5.2597,5.2622,5.2589,5.2639,5.2643,5.266,5.2719,5.2745,5.2725,5.284,5.2803,5.2809,5.2812,5.2845,5.2857,5.2869,5.2719,5.2719,5.2718,0,0,5.2576,5.2587,5.2634,5.2646,5.2664,5.2661,5.2672,5.2685,5.2687,5.2736,5.2712,5.274,5.2792,5.2804,5.2817,5.2907,5.2887,5.2916,5.2967,5.3001,5.3011,5.3021,5.3053,5.3064,5.2923,5.2923,5.2923,0,5.2621,5.2673,5.266,5.2701,5.2717,5.2688,5.2735,5.2747,5.2773,5.2784,5.2761,5.2824,5.2833,5.2894,5.2916,5.2927,5.2939,5.2915,5.3011,5.302,5.3029,5.3059,5.3071,5.2926,5.2926,5.2926,5.2925,0,5.2728,5.2764,5.2799,5.2825,5.2845,5.2888,5.2881,5.2903,5.2891,5.289,5.294,5.2949,5.2978,5.2991,5.298,5.305,5.3037,5.3013,5.2973,5.3045,5.3073,5.3085,5.2931,5.293,5.2929,5.2928,0,0,5.285,5.2866,5.288,5.289,5.2907,5.2934,5.2975,5.3003,5.3021,5.3039,5.3073,5.3116,5.3093,5.3108,5.3097,5.3127,5.3197,5.3098,5.3098,5.3117,5.3275,5.3294,5.3308,5.3183,5.3185,5.3187,5.3273,0,5.2938,5.301,5.2999,5.3069,5.3101,5.3073,5.3108,5.3122,5.3121,5.3148,5.3147,5.3178,5.3145,5.3154,5.3182,5.3183,5.3228,5.3176,5.3214,5.3216,5.3213,5.3322,5.3343,5.3425,5.3284,5.3286,5.3288,0,5.3051,5.3073,5.3146,5.3156,5.3169,5.3202,5.3225,5.3251,5.3265,5.3262,5.3278,5.3262,5.3302,5.326,5.3315,5.3279,5.3294,5.3296,5.3299,5.3303,5.3257,5.3331,5.345,5.3463,5.3305,5.3303,5.3302,0,5.3133,5.3181,5.323,5.324,5.3253,5.3276,5.3282,5.3294,5.3311,5.3331,5.3341,5.3366,5.338,5.3398,5.3389,5.3359,5.3445,5.3402,5.3444,5.3444,5.3465,5.3464,5.3589,5.3472,5.3472,5.3472,5.3471,0,5.3234,5.328,5.3267,5.3298,5.3348,5.3333,5.3383,5.3385,5.3395,5.3425,5.3401,5.343,5.3414,5.3441,5.3434,5.348,5.3486,5.3485,5.3482,5.3488,5.3488,5.3498,5.3493,5.3475,5.3474,5.3474,5.3473,0,5.3335,5.3329,5.3381,5.3388,5.3391,5.3427,5.3433,5.3461,5.3458,5.3496,5.3504,5.3499,5.3529,5.3521,5.3554,5.3548,5.3607,5.3597,5.3603,5.3601,5.3643,5.3639,5.3781,5.3798,5.3669,5.367,5.3671,0,5.3401,5.3435,5.3446,5.3464,5.3472,5.3502,5.3519,5.3505,5.3523,5.354,5.3566,5.3594,5.3616,5.3665,5.3664,5.3689,5.368,5.3727,5.3683,5.3687,5.3681,5.368,5.3683,5.3737,5.3738,5.3739,5.374,0,5.3518,5.3512,5.3538,5.3562,5.3583,5.3601,5.3617,5.3633,5.3619,5.3641,5.3672,5.3689,5.3721,5.3749,5.3771,5.3777,5.3757,5.3754,5.3765,5.3772,5.3774,5.3774,5.3628,5.3751,5.375,5.3749,5.3749,5.3748,5.3604,5.3633,5.3644,5.3673,5.3683,5.3698,5.3725,5.3724,5.375,5.3776,5.3765,5.38,5.3811,5.3838,5.3846,5.3873,5.3855,5.3871,5.3875,5.3879,5.3885,5.3768,5.3877,5.3876,5.3876,5.3876,5.3875,0,5.372,5.3725,5.3752,5.3775,5.3797,5.3775,5.379,5.3811,5.3842,5.3854,5.3875,5.391,5.3936,5.3936,5.3961,5.3982,5.3973,5.3989,5.3988,5.399,5.39,5.3888,5.3996,5.3996,5.3996,5.3996,5.3996,5.3996,5.3783,5.3831,5.3827,5.3879,5.3883,5.3918,5.3929,5.3942,5.3951,5.3991,5.4013,5.4012,5.4019,5.4043,5.4066,5.4065,5.4076,5.4096,5.4092,5.4008,5.3996,5.3985,5.3974,5.4098,5.4098,5.4179,5.418,5.4181]}]]